Probability
0 0 0 0 0 0 0 0 0 0 0 0 0 0 0 0 0 0 0 0 0 0 0 0 1 1 2 4 3 2 1 2 2 2 1 1 0 0 0 0 0 0 0
0 0 0 0 0 0 0 0 0 0 0 0 0 0 0 0 0 0 0 0 0 0 0 0 1 2 3 5 4 3 2 2 2 2 2 1 0 0 0 0 0 0 0
0 0 0 0 0 0 0 0 0 0 0 0 0 0 0 0 0 0 0 0 0 0 1 1 2 2 4 5 5 4 4 3 2 2 2 1 0 0 0 1 1 0 0
0 0 0 0 0 0 0 0 0 0 0 0 0 0 0 0 0 0 0 0 0 0 1 1 1 2 3 4 4 5 5 4 3 3 2 1 0 0 1 2 2 1 0
0 0 0 0 0 0 0 0 0 0 0 0 0 0 0 0 0 0 0 1 1 0 1 1 1 2 2 3 4 6 6 4 3 3 4 3 1 1 1 2 2 1 0
0 0 0 0 0 0 0 0 0 0 0 0 0 0 0 0 0 0 0 1 1 1 0 1 2 2 2 3 4 5 5 4 4 4 5 5 4 3 2 2 1 0 0
0 0 0 0 0 0 0 0 0 0 0 0 0 0 0 0 0 0 1 2 2 2 2 2 3 3 2 2 3 4 4 5 5 5 5 6 6 5 4 3 2 1 1
0 0 0 0 0 0 0 0 0 0 0 0 0 0 0 0 0 0 2 2 2 3 3 3 3 3 3 3 3 3 3 5 7 6 6 6 6 5 4 4 4 3 2
0 0 0 0 0 0 0 0 0 0 0 0 0 0 0 0 0 0 1 2 2 2 3 3 3 3 3 3 3 3 2 4 6 6 6 6 6 5 5 5 5 4 3
0 0 0 0 0 0 0 0 0 0 0 0 0 0 0 0 0 0 0 0 0 1 1 2 3 3 3 3 3 3 3 4 5 5 4 4 5 5 5 5 4 3 3
0 0 0 0 0 0 0 0 0 0 0 0 0 0 0 0 0 0 0 0 0 0 0 1 2 3 3 3 3 3 3 4 4 4 3 3 3 3 4 4 3 2 2
0 0 0 0 0 0 0 0 0 0 0 1 1 1 1 1 1 0 0 0 0 0 0 0 1 2 3 3 4 4 3 3 3 3 3 3 2 2 3 2 1 0 1
0 1 1 2 2 2 1 1 1 1 2 3 3 2 2 2 2 1 0 0 0 0 0 0 1 1 1 2 4 4 3 3 3 2 2 2 2 3 2 1 0 0 0
1 2 4 5 5 5 5 5 5 5 6 6 4 3 3 3 3 1 0 0 0 0 0 0 0 0 0 1 1 2 2 2 2 1 1 2 2 3 1 0 0 0 0
1 2 4 7 8 8 9 10 11 11 11 9 7 5 4 3 3 2 1 1 1 0 0 0 0 0 0 0 0 0 1 1 1 0 0 1 1 1 1 0 0 0 0
1 2 4 8 10 11 12 13 14 14 13 12 10 8 6 4 3 2 2 2 1 0 0 0 0 0 0 0 0 0 0 0 0 0 0 0 0 0 0 0 0 0 0
3 4 6 8 11 13 14 15 15 14 14 14 14 13 11 9 6 6 6 4 2 1 1 1 2 1 0 0 1 1 1 1 2 1 0 0 0 0 0 0 0 0 0
7 7 8 10 11 13 15 17 18 17 15 15 15 16 16 15 13 12 11 8 6 5 3 2 3 3 2 2 2 2 3 3 3 2 0 0 0 0 0 0 0 0 0
9 9 10 11 12 13 17 20 22 22 19 17 16 16 18 18 18 18 16 12 10 8 5 4 4 5 5 5 4 3 3 4 3 1 0 0 0 0 0 0 0 0 0
10 11 12 13 12 14 19 22 23 23 21 19 16 15 16 17 18 19 17 16 13 10 8 7 7 7 7 6 5 4 3 2 1 0 0 0 0 0 0 0 0 0 0
12 13 13 12 12 13 16 18 18 19 19 19 17 16 17 17 15 14 14 15 15 13 10 9 9 8 7 6 6 4 3 1 0 0 0 0 0 0 0 0 0 0 0
13 13 12 11 10 10 9 9 11 13 15 16 17 18 17 15 14 12 10 10 12 11 10 9 9 9 7 6 5 4 2 1 0 0 0 0 0 0 0 0 0 0 0
12 11 9 8 7 7 5 3 4 8 12 14 15 16 15 14 14 14 11 7 6 6 6 7 9 9 8 7 6 5 2 1 0 0 0 0 0 0 0 0 0 0 0
11 10 8 6 6 5 3 1 2 6 10 12 12 12 12 11 12 13 12 9 6 4 3 4 6 7 6 6 5 5 3 1 0 0 0 0 0 0 0 0 0 0 0
10 9 9 8 6 4 3 1 2 6 9 11 11 11 10 10 8 8 9 11 10 7 3 2 2 2 2 2 2 3 3 2 0 0 1 1 1 1 0 0 0 0 0
10 10 10 9 7 4 2 1 2 7 10 10 11 10 10 9 7 5 6 9 10 9 5 2 0 0 0 0 0 1 2 2 1 0 1 2 2 2 1 1 1 1 0
Wind_Speed
1 0 1 1 1 1 1 1 1 2 2 1 1 1 2 2 3 3 2 7 8 8 9 9 9 9 9 9 9 8 8 8 8 8 8 8 8 8 7 7 8 7 7
1 1 1 1 1 1 1 1 1 1 1 1 1 2 2 2 3 3 3 4 7 8 9 10 10 10 9 9 9 9 9 8 8 8 9 9 8 8 8 7 8 8 8
2 1 1 1 2 1 1 1 1 1 1 1 2 2 2 3 3 3 3 3 3 7 9 10 10 10 10 10 10 10 9 9 9 8 8 8 8 8 8 8 8 8 8
2 2 1 2 1 1 0 1 0 0 1 1 1 2 1 2 3 3 3 3 3 3 6 10 10 10 10 10 10 10 9 9 9 9 9 9 9 8 8 8 9 9 8
3 2 1 2 1 0 0 1 0 0 1 1 2 1 1 1 2 2 3 4 4 4 4 6 9 10 11 11 10 10 10 9 9 9 9 9 9 9 8 8 8 8 8
3 2 2 2 1 0 0 1 1 0 1 1 2 2 2 2 2 2 3 3 3 5 5 5 5 6 10 11 10 10 9 9 9 8 9 8 8 8 7 7 7 7 7
3 3 2 1 1 1 1 1 0 0 1 0 1 2 3 2 1 2 2 2 3 4 4 5 4 4 4 8 8 9 9 9 8 8 8 8 7 7 7 7 6 6 6
3 3 3 2 1 1 1 1 1 0 0 0 1 1 3 3 2 1 1 2 2 2 4 4 4 5 4 3 4 8 8 8 9 9 8 8 7 7 7 7 7 6 6
2 2 3 2 2 2 1 2 1 1 1 0 1 1 1 2 3 2 2 1 2 2 2 3 4 4 5 4 4 5 8 8 8 8 8 7 6 6 6 7 7 7 7
2 2 3 3 2 2 2 3 2 2 2 1 1 1 1 2 1 2 3 2 2 2 2 2 3 3 4 3 4 6 7 7 7 7 6 6 6 6 6 6 6 6 6
2 2 2 2 3 2 3 3 2 2 2 2 1 1 1 1 1 1 3 3 3 2 2 2 2 2 3 3 3 5 7 7 6 6 6 6 6 6 6 6 6 6 5
1 2 2 3 3 3 3 3 3 3 3 2 2 2 2 1 2 2 3 3 3 3 3 2 2 2 2 3 4 6 6 6 5 5 5 5 5 5 5 5 5 5 4
2 3 3 3 3 4 4 3 3 3 3 3 3 2 2 2 2 2 2 2 2 3 3 2 2 2 2 2 3 5 5 5 5 5 4 5 5 5 5 5 5 4 4
3 3 3 3 3 4 4 3 3 3 3 3 4 3 2 2 2 3 2 2 1 2 2 3 2 1 1 1 2 3 2 4 4 4 4 4 4 4 4 4 4 4 4
3 3 3 3 3 3 3 3 2 3 2 3 3 3 3 2 2 3 3 3 2 2 2 3 2 2 1 1 2 1 2 3 4 4 4 5 5 5 5 4 4 4 3
3 3 3 3 3 3 3 3 3 3 3 3 3 3 3 3 2 3 3 3 3 3 3 2 2 2 2 2 1 1 1 2 3 3 4 4 4 5 4 4 4 3 3
4 4 4 3 3 3 3 4 4 4 4 4 4 4 4 3 3 3 3 3 3 3 4 3 2 1 1 2 1 1 1 1 2 4 4 4 4 4 4 4 3 3 3
4 4 4 3 4 4 3 4 5 5 5 6 5 4 5 4 4 3 3 3 3 4 4 4 2 1 2 1 1 1 1 0 1 2 3 3 3 3 3 3 3 3 3
4 4 4 4 4 4 4 4 4 5 5 6 5 5 5 4 4 3 3 4 3 3 3 3 2 1 1 1 1 1 1 1 1 1 2 2 3 3 3 3 3 3 3
4 4 4 4 4 4 4 4 4 4 5 5 5 5 5 5 5 5 5 5 4 3 3 2 2 1 1 1 1 1 1 1 1 0 0 1 2 2 3 3 3 3 3
3 3 3 3 3 3 3 3 4 4 4 4 5 5 5 6 7 6 5 4 4 3 3 3 2 2 2 2 2 2 1 1 1 1 0 1 1 1 1 2 3 3 4
2 2 2 3 3 3 3 4 4 3 3 4 4 5 5 5 7 7 8 7 6 5 5 4 3 3 4 3 2 2 2 1 2 1 1 1 1 2 2 2 3 4 4
2 2 3 3 4 5 5 5 4 3 3 4 4 4 4 4 5 4 5 6 6 8 7 5 5 5 4 4 4 3 3 3 3 2 2 2 2 2 2 2 3 3 4
3 3 4 4 4 5 5 5 4 4 4 4 4 4 4 4 4 4 4 3 4 5 6 5 5 6 5 4 5 4 3 2 1 1 2 2 2 2 1 2 3 4 4
3 4 3 4 5 5 4 4 4 2 3 4 4 3 3 4 4 4 4 4 4 4 4 4 5 5 5 5 4 3 3 2 1 1 2 2 1 1 1 2 2 3 4
4 4 4 4 5 5 4 5 4 3 3 4 3 3 4 4 4 4 4 5 5 5 3 2 2 2 3 3 5 5 4 3 2 2 2 2 2 1 1 1 1 1 1
Wind_Direction
213 304 329 324 325 324 327 331 336 335 335 333 293 246 239 229 229 219 224 225 221 222 222 222 222 220 220 220 220 223 224 221 219 219 222 223 223 226 229 228 225 228 233
193 192 294 300 296 291 292 286 296 307 318 317 297 269 258 248 236 226 223 231 231 227 226 229 227 225 224 225 225 226 228 226 223 223 224 224 225 228 234 236 232 232 233
194 187 236 275 277 279 293 300 312 322 305 304 302 291 269 253 243 231 224 224 237 235 230 232 231 230 231 231 231 232 233 231 228 226 226 224 224 228 231 233 235 237 237
193 190 214 256 270 276 322 293 301 332 319 314 304 302 294 271 255 237 222 222 227 235 237 237 233 230 232 234 237 238 237 234 230 228 227 227 228 230 230 231 233 236 237
194 189 218 245 249 232 315 277 300 215 288 310 298 295 296 278 266 250 235 231 232 234 237 245 239 231 232 239 242 242 241 236 234 231 230 229 231 231 230 233 235 235 238
197 189 219 238 208 192 237 241 250 264 246 288 309 319 304 284 265 254 246 238 237 239 238 240 240 238 237 240 242 242 243 240 236 233 233 232 233 231 228 229 232 236 239
203 191 219 227 199 198 242 244 207 296 328 343 9 336 321 297 272 253 258 251 246 243 239 235 233 234 240 240 242 243 246 245 241 235 232 230 230 228 224 224 226 230 236
207 209 205 212 206 194 255 252 183 147 312 84 103 23 339 335 329 306 284 260 267 258 249 239 227 228 233 234 240 240 242 246 246 244 234 230 230 229 226 226 224 230 237
215 219 205 197 201 199 228 239 201 168 241 280 155 147 152 280 308 313 299 299 298 274 270 263 241 234 230 227 234 242 240 243 245 241 234 230 226 225 224 227 229 231 234
216 211 206 196 200 207 228 238 206 192 191 228 247 208 204 194 234 311 313 306 302 289 281 270 255 238 227 224 228 233 236 237 238 237 231 226 224 225 225 228 232 233 234
236 226 211 196 202 215 229 232 211 194 197 197 203 197 199 199 208 220 291 314 315 291 281 279 263 244 231 225 229 234 234 234 235 233 231 230 227 227 228 230 232 235 234
241 232 212 206 212 221 229 229 218 200 205 201 198 189 189 196 205 202 243 277 291 291 286 280 271 256 241 232 238 237 230 226 224 224 227 229 228 226 226 227 232 233 237
239 237 221 208 215 227 232 227 216 210 205 206 211 208 211 217 202 194 212 251 270 288 300 287 271 266 257 238 246 242 231 225 219 220 221 222 220 218 217 210 215 224 233
235 234 224 220 225 230 237 224 221 218 205 210 223 213 215 222 207 205 204 203 263 296 291 287 289 275 282 268 263 247 238 229 221 221 218 212 207 206 203 203 206 212 224
236 233 227 228 227 229 230 216 225 231 213 216 226 225 221 222 213 220 212 196 199 255 279 281 289 306 290 268 275 244 236 234 224 215 214 209 205 204 198 195 199 208 222
230 229 234 235 233 230 225 215 223 229 219 230 228 230 239 233 221 217 215 209 205 208 244 260 258 280 295 300 292 255 243 219 219 215 211 207 202 197 192 193 199 201 207
224 224 228 232 234 233 225 216 227 227 226 237 236 229 242 243 237 231 219 211 211 206 234 257 248 265 261 296 316 301 258 224 220 213 212 206 199 194 187 187 194 202 207
227 224 221 226 232 233 227 225 234 232 229 238 241 232 241 239 235 230 218 221 219 213 221 246 250 249 246 270 284 276 290 282 256 219 209 202 202 198 194 193 194 201 210
232 228 221 228 238 241 236 233 233 237 237 241 240 234 237 232 242 235 225 228 227 222 217 227 243 243 260 284 299 292 303 325 285 208 188 191 195 191 194 201 203 207 212
237 233 230 232 235 240 241 238 231 237 242 247 246 240 237 231 238 241 235 231 222 213 207 218 229 239 253 251 227 240 274 297 290 247 154 174 190 194 201 205 208 208 210
241 233 225 238 242 240 245 240 235 240 246 254 254 246 241 236 232 231 233 224 212 209 210 220 225 224 233 221 226 215 233 273 281 223 229 244 220 237 229 221 219 217 216
236 227 230 237 242 246 256 245 234 247 250 254 260 258 252 248 248 238 233 222 206 207 212 216 223 230 235 230 217 210 197 209 242 207 208 254 226 240 248 239 234 227 220
233 237 243 240 248 254 255 255 239 227 239 249 255 262 264 258 240 238 240 237 231 226 211 203 219 228 225 219 202 210 211 216 234 215 199 233 222 241 254 247 229 229 225
241 242 246 247 253 264 260 255 245 225 234 244 246 249 257 266 254 233 231 232 233 231 226 219 224 230 227 212 201 204 207 208 261 236 203 219 225 240 251 252 230 227 227
247 243 251 253 254 266 259 247 226 228 246 257 257 259 260 263 261 232 218 226 235 242 238 229 230 233 227 206 182 159 165 184 246 252 207 211 232 264 264 260 243 227 222
252 253 254 251 251 258 259 245 223 221 246 263 274 271 263 265 267 225 218 222 232 237 222 211 220 232 220 198 185 188 188 193 216 233 199 194 212 217 249 241 267 267 237